Wind_Speed
4 5 2 2 3 4 5 5 5 4 7 9 6 6 6 5 4 4 2 2 6 6 1 2 1 1 3 4 6 6 5 6 4 4 5 4 3 2 3 4 3 2 2 3 5 8 8 8 8 7 7 6 7 7 6 6 7 8 8 9 11 13 13 15 17 17 19 20 21 21 22 21 19 17 15 15 14 14 13 12 11 9 8 7 7 7
5 6 1 5 6 4 3 5 7 6 6 6 6 7 4 3 4 1 3 3 4 5 2 1 3 1 2 4 5 6 5 5 5 5 4 5 5 4 5 7 4 2 2 4 5 7 8 7 7 6 6 5 5 6 5 6 7 8 8 9 11 12 13 15 17 17 19 20 20 19 19 19 17 15 15 14 13 13 12 11 11 10 8 7 7 7
5 1 5 6 4 5 5 5 8 7 6 5 4 6 4 2 1 3 3 3 1 3 2 2 4 0 0 3 4 5 5 3 4 5 4 6 7 7 7 6 4 3 3 4 5 6 7 7 7 6 5 5 5 6 6 7 7 8 9 10 11 12 13 15 16 16 17 17 18 17 16 16 14 13 13 12 12 12 12 12 12 11 9 8 8 7
3 3 6 3 5 7 6 5 8 7 5 4 4 5 4 3 2 1 1 2 2 3 4 4 4 2 0 3 4 5 4 1 4 5 5 6 8 6 4 2 3 5 5 5 5 6 8 8 7 6 6 7 6 6 6 6 7 8 10 11 11 12 13 14 14 14 13 14 15 15 13 13 12 11 11 10 11 12 13 13 13 13 11 9 9 7
2 6 2 4 4 6 7 4 5 7 3 2 3 5 4 4 4 3 4 3 4 6 4 6 4 3 3 5 6 4 4 2 3 5 6 8 8 6 4 3 5 6 5 6 6 6 7 7 6 7 7 6 5 5 4 5 6 8 10 11 12 12 12 12 11 11 12 13 15 15 14 14 13 12 12 13 13 14 14 13 13 12 11 10 9 7
1 4 1 5 5 6 7 3 3 6 2 3 2 5 6 6 5 6 8 5 4 4 2 3 3 4 3 5 7 3 5 6 3 4 7 9 9 7 7 6 5 5 6 6 6 6 6 6 6 6 6 5 3 3 4 4 6 8 9 10 10 10 10 10 10 10 11 12 15 16 15 15 15 14 14 14 15 14 13 12 11 10 9 8 8 7
0 2 2 5 6 7 6 1 2 5 5 1 4 6 5 6 7 8 8 4 2 1 3 3 3 3 4 4 7 5 6 9 5 5 8 8 9 8 8 7 5 6 6 5 5 5 5 6 6 6 6 3 2 2 2 3 5 6 8 8 8 8 9 9 9 10 10 10 13 13 12 11 12 12 12 12 12 11 11 11 10 9 7 7 7 6
2 4 6 5 6 6 5 1 3 5 7 1 4 6 7 6 7 8 7 4 2 2 2 3 3 0 3 5 5 7 7 8 8 10 9 8 10 10 9 9 7 6 5 5 4 4 6 9 8 8 7 4 3 2 1 2 3 4 5 6 6 6 7 7 8 8 8 9 11 11 9 9 9 10 11 11 10 9 9 10 10 9 8 7 7 6
1 2 2 4 6 4 2 3 6 7 4 4 3 7 5 5 5 5 6 3 1 3 2 3 0 1 4 6 2 5 7 8 10 13 12 11 11 11 11 10 8 6 5 5 5 6 8 9 10 9 7 5 3 2 1 2 2 3 4 4 5 6 6 5 6 7 7 7 9 9 8 8 8 9 10 10 9 9 9 10 10 9 8 8 8 7
1 1 3 5 5 2 4 4 6 7 2 4 6 7 5 6 5 4 5 4 3 3 3 6 3 2 5 5 2 2 5 9 11 12 13 12 11 11 11 10 8 5 5 5 6 8 9 8 9 9 8 6 4 2 2 2 2 1 2 3 4 5 4 3 4 7 7 6 7 7 7 7 8 9 10 10 9 10 11 12 11 10 10 9 9 8
3 3 2 3 2 4 3 1 3 3 2 4 6 6 6 5 5 4 3 4 5 1 5 6 5 4 3 5 2 3 5 9 10 9 9 10 11 12 12 11 9 7 6 5 6 7 8 8 10 10 9 8 5 3 3 2 1 0 1 3 5 5 3 1 4 6 6 5 5 6 6 7 8 9 10 11 11 11 12 13 12 11 10 10 9 10
6 3 0 1 1 3 3 4 1 2 4 5 4 5 4 3 4 4 4 4 4 2 5 4 4 6 3 5 5 7 8 7 8 9 10 12 13 13 12 11 10 8 7 6 5 6 8 9 10 12 12 10 7 6 5 3 2 2 2 3 5 4 1 1 4 6 6 4 4 5 5 6 8 9 10 10 10 11 12 12 12 11 10 10 10 11
4 1 3 4 0 2 3 2 2 6 5 5 4 5 4 2 3 2 3 2 1 4 3 1 2 3 5 7 6 9 12 10 8 9 10 12 13 13 12 11 10 8 8 8 7 6 8 10 12 15 14 11 9 9 7 5 4 4 4 4 4 2 1 1 4 5 6 4 4 5 6 6 7 8 9 8 8 9 10 10 10 10 11 11 11 11
3 4 6 4 1 1 4 3 0 2 3 3 3 4 3 2 2 1 3 1 2 3 2 2 2 1 4 5 5 8 11 10 9 9 9 9 11 11 11 10 8 8 9 8 7 7 7 11 15 16 15 13 12 12 9 7 6 7 6 4 3 1 2 1 3 4 5 4 4 5 6 7 7 8 8 8 8 8 8 7 7 9 10 10 10 10
1 3 4 1 2 2 2 3 4 4 3 1 3 5 3 4 4 2 3 2 3 3 2 3 1 2 2 3 5 6 7 7 7 8 8 7 5 5 5 6 7 8 8 7 8 7 9 14 17 16 15 15 15 14 12 10 9 9 7 5 3 2 3 1 2 3 3 3 4 5 6 7 7 7 8 7 7 7 7 6 6 7 8 8 8 8
2 3 6 4 3 1 2 1 4 5 3 1 2 4 1 3 4 2 2 4 2 1 1 2 2 4 4 4 5 4 4 4 5 5 6 7 3 6 6 7 8 7 7 7 8 8 10 16 17 17 18 17 17 16 15 13 11 10 7 5 4 4 4 2 2 2 2 2 3 5 6 7 7 6 6 6 6 6 6 6 6 7 7 7 7 7
2 3 6 5 2 1 2 1 2 3 1 1 0 1 3 3 6 4 1 1 3 1 2 1 2 5 3 3 5 5 5 6 5 3 4 5 3 6 6 7 7 8 8 9 9 8 11 15 17 18 19 19 19 18 16 14 13 10 8 6 5 5 5 4 3 3 2 1 3 5 5 5 5 5 5 5 5 5 5 6 6 6 6 6 7 7
3 2 6 3 1 2 1 2 4 3 3 1 1 3 3 2 4 4 1 3 4 1 3 2 2 5 3 1 5 6 5 6 5 4 3 1 3 5 7 6 7 8 7 8 8 7 10 15 17 18 19 20 21 20 17 15 13 11 9 8 7 7 7 6 4 4 3 1 4 5 4 3 3 3 3 3 4 4 5 6 6 6 6 7 7 7
3 1 7 2 1 6 4 4 3 5 3 1 2 2 2 2 0 1 2 0 1 1 3 3 3 3 2 3 4 4 5 6 5 4 3 4 6 7 7 6 6 6 6 7 7 7 9 14 17 19 19 21 22 21 18 15 14 13 12 11 9 9 8 7 6 5 3 2 4 4 3 4 3 3 2 4 4 4 5 6 7 7 8 9 9 8
2 2 4 5 3 4 6 3 1 4 6 3 2 2 2 2 3 1 1 2 2 1 2 3 4 2 5 5 4 6 8 6 5 5 6 8 9 8 7 6 7 8 7 8 8 7 9 14 18 20 21 23 23 22 19 16 15 15 14 13 13 11 9 7 7 6 3 2 3 2 2 3 4 3 2 4 4 6 8 8 9 10 10 11 11 10
2 3 1 6 4 3 3 0 4 3 2 2 2 1 1 1 1 1 0 1 3 3 2 1 2 4 6 4 6 8 8 7 8 8 8 9 9 8 7 7 7 8 8 8 8 8 10 14 17 19 21 23 23 22 20 18 16 16 16 15 15 13 10 8 8 6 3 2 2 1 1 3 3 1 2 3 5 7 9 9 10 11 11 11 11 10
1 2 1 3 4 2 4 5 4 5 5 4 2 3 3 2 2 2 2 2 1 2 3 3 2 7 6 3 5 7 6 6 8 8 8 8 9 8 7 7 7 7 8 8 8 7 9 14 17 19 20 21 22 21 20 18 17 17 18 16 15 14 12 10 9 7 4 1 1 1 0 2 1 1 2 3 4 6 7 8 10 10 10 11 11 10
2 3 2 1 3 4 8 7 1 3 5 5 2 2 3 3 4 4 2 3 0 1 2 3 1 6 6 3 4 6 5 6 7 7 8 8 8 8 7 6 6 7 7 6 6 7 9 13 16 18 19 20 21 21 19 18 18 19 19 17 16 15 13 11 9 7 5 2 2 2 1 1 2 4 5 5 5 5 6 7 8 9 10 11 12 10
2 3 3 2 4 5 6 5 4 4 5 5 2 1 2 2 3 4 4 3 2 2 1 1 2 6 6 4 3 5 5 5 6 7 8 7 6 6 7 6 7 7 6 6 6 7 9 12 15 17 19 20 21 20 18 18 20 20 19 19 18 16 14 12 10 9 6 3 3 3 2 2 4 8 8 6 6 5 5 5 6 8 9 11 12 10
1 1 2 2 4 6 6 6 5 5 4 2 2 3 2 3 4 2 2 3 1 3 4 3 4 6 5 5 4 4 3 4 6 6 7 7 6 6 6 6 7 6 6 7 7 7 9 12 14 17 18 19 19 18 18 20 21 21 20 20 20 17 15 13 11 10 8 5 5 5 3 3 6 9 10 8 7 6 5 5 5 6 8 10 11 10
1 1 3 3 0 2 2 3 3 3 2 1 1 3 3 3 3 1 1 3 1 3 3 4 4 6 6 6 6 5 5 5 5 4 5 6 6 6 7 7 7 7 8 9 9 8 9 10 13 16 18 18 18 18 21 23 22 22 22 22 21 18 16 14 12 12 10 6 7 7 4 4 7 9 9 8 7 7 6 5 5 5 7 9 10 9
3 1 2 5 5 5 6 6 5 2 0 3 3 3 1 1 2 3 3 2 3 2 2 5 5 5 8 7 7 7 6 6 6 4 5 7 7 7 7 7 7 7 8 8 7 7 7 8 12 17 18 17 19 22 25 25 24 24 23 23 21 19 17 15 13 13 11 7 8 8 5 5 7 8 7 7 8 8 7 5 4 5 6 8 8 7
4 1 1 5 5 7 7 7 3 2 2 4 3 4 3 3 3 4 3 4 4 3 4 7 5 4 8 7 6 8 7 6 7 7 6 6 6 7 6 5 6 7 6 7 7 8 9 11 12 14 17 19 22 25 26 25 25 25 25 24 22 21 19 15 14 14 13 9 9 9 6 5 8 8 7 7 9 9 7 5 4 4 5 6 6 6
5 1 2 3 3 5 5 5 2 1 3 3 3 6 6 4 6 5 6 6 6 5 7 6 6 7 8 7 7 9 8 6 7 7 5 4 4 6 5 6 8 8 8 8 10 11 12 11 10 14 18 21 24 26 24 24 24 24 24 24 24 23 20 17 15 15 15 11 10 10 7 5 8 10 9 9 9 9 8 6 4 4 5 5 5 7
3 2 2 2 3 6 5 5 4 2 2 3 5 7 7 6 7 7 6 6 7 8 9 6 6 8 8 8 11 11 8 5 5 5 6 5 5 6 7 7 8 9 10 11 12 12 12 12 13 17 19 21 25 25 23 24 25 25 26 26 25 24 21 18 17 17 16 14 12 11 8 6 10 11 11 10 10 10 8 6 5 4 5 5 6 7
0 2 0 3 2 6 6 4 1 1 1 4 8 8 8 8 7 5 5 4 5 6 7 5 5 7 7 8 11 10 7 4 5 7 7 7 6 5 6 8 9 9 10 12 12 12 11 11 12 15 18 22 26 26 26 26 25 24 26 26 27 26 22 20 19 18 17 15 13 12 10 9 11 13 12 12 11 10 9 7 5 5 5 6 7 8
1 1 1 4 1 5 5 4 4 3 2 4 9 11 10 8 6 4 4 5 5 4 4 3 3 6 6 4 6 7 6 5 7 9 8 7 6 6 8 9 10 11 12 12 11 11 11 11 12 16 20 24 27 27 27 24 20 22 26 27 28 26 22 21 20 19 18 16 15 14 12 11 14 15 14 13 12 11 10 8 7 6 7 8 9 9
3 3 1 2 1 5 5 3 3 4 5 5 8 7 6 5 5 4 4 5 6 4 3 3 5 6 5 3 5 6 6 6 8 7 7 7 6 7 9 10 10 11 12 12 11 11 12 13 16 21 25 28 29 30 29 27 27 31 32 30 29 26 23 22 21 20 19 17 17 16 14 14 16 17 16 15 13 12 11 10 8 8 9 10 10 11
3 4 2 2 2 5 5 4 4 4 3 5 6 6 5 4 5 5 6 7 6 4 3 5 6 7 6 5 5 8 9 8 7 6 6 6 5 6 8 10 10 10 9 9 10 11 13 15 20 25 28 29 30 30 31 31 31 32 31 30 29 26 24 23 23 22 20 19 18 17 15 17 18 18 17 16 15 13 12 11 10 10 11 11 12 12
3 3 2 1 1 3 3 5 4 4 6 8 7 4 5 4 5 7 8 8 7 7 6 6 8 9 8 7 7 8 10 10 8 7 8 7 7 7 8 8 9 9 8 9 10 10 12 16 20 23 26 27 26 26 28 27 25 25 27 29 29 27 25 24 24 23 22 20 19 18 18 19 20 19 17 17 16 15 14 12 10 11 12 12 12 12
5 4 2 1 2 1 2 3 1 6 7 7 7 3 2 1 2 1 5 7 6 7 7 6 8 8 7 7 7 6 8 8 7 7 8 8 7 7 8 8 9 9 9 11 12 14 18 22 25 27 28 27 26 27 28 27 28 28 29 29 29 28 26 25 25 25 24 22 20 19 21 21 21 19 17 17 17 16 15 13 11 12 14 13 13 12
6 4 2 2 2 2 1 2 3 5 7 7 4 1 2 1 3 4 1 6 8 6 7 6 7 7 6 6 6 5 4 3 5 5 6 6 6 7 8 9 8 9 10 12 14 16 19 22 25 26 25 25 26 29 30 29 31 31 30 29 30 29 27 27 27 26 25 23 21 21 22 23 21 19 18 18 18 18 16 14 12 14 16 14 13 12
4 3 4 4 2 2 2 2 3 4 5 6 6 5 3 2 6 7 3 5 8 5 5 6 5 6 6 6 7 5 3 5 5 6 6 5 5 5 7 8 8 10 12 12 13 14 15 17 20 21 21 23 25 28 29 30 32 32 31 30 30 30 29 28 28 27 26 25 23 22 23 24 22 20 19 19 19 19 17 15 14 15 17 16 13 12
4 2 4 4 1 2 4 2 2 2 5 7 7 7 5 4 6 6 5 5 7 5 3 6 5 6 6 6 6 3 6 6 5 6 6 7 6 4 5 6 7 9 12 14 14 15 16 18 18 18 19 22 25 27 29 31 33 33 32 32 31 30 30 30 30 29 28 26 24 22 23 24 22 20 19 19 20 20 18 17 15 16 17 17 14 12
5 3 3 3 3 3 4 2 3 4 6 7 6 5 4 4 6 8 4 5 7 5 4 6 5 6 5 5 3 3 4 1 4 5 6 6 6 4 4 5 6 7 10 13 15 15 16 17 19 20 22 25 28 29 30 32 33 33 33 32 31 31 32 33 32 30 28 26 24 23 24 24 23 21 20 19 20 21 19 18 17 17 18 18 16 14
2 1 2 3 3 3 4 3 4 4 6 7 6 6 6 3 7 5 3 6 5 5 5 7 6 6 6 5 2 1 3 5 5 5 6 4 3 4 3 3 3 3 5 8 11 13 15 18 21 23 25 27 28 29 31 33 33 33 32 31 31 33 35 35 32 29 28 26 24 24 25 25 23 21 20 19 19 21 20 19 19 19 19 19 18 16
1 0 1 3 2 2 3 3 3 5 6 5 4 3 5 3 2 3 6 5 4 5 6 6 7 6 6 6 5 5 6 6 5 6 6 4 5 5 4 3 3 3 4 5 8 12 15 18 20 20 21 23 26 30 33 34 33 32 30 30 33 36 36 33 30 29 29 27 25 25 25 25 23 22 21 20 20 21 21 20 20 20 20 20 19 18
4 2 2 3 3 2 2 1 1 4 5 5 6 3 2 4 5 6 4 3 4 6 5 5 7 6 5 6 7 7 6 6 6 6 6 5 5 5 5 5 5 4 5 6 8 12 16 18 19 20 20 22 27 31 34 35 33 30 30 32 36 37 34 31 30 30 29 27 26 26 26 25 24 23 22 21 21 21 21 21 22 22 22 21 21 20
3 4 3 3 3 3 3 3 4 5 6 6 5 4 5 6 4 4 3 3 5 5 4 5 6 7 7 7 7 8 7 6 6 6 6 6 6 5 6 7 8 7 8 9 10 13 17 18 19 20 20 23 28 32 35 36 33 30 31 35 37 34 31 30 30 30 29 28 27 27 27 25 24 24 23 22 22 22 20 21 22 24 24 23 22 21
5 6 4 4 4 4 5 7 6 4 4 5 4 5 7 6 2 5 5 4 5 5 5 4 6 7 7 7 7 7 6 7 7 7 7 7 7 7 7 9 10 12 12 11 11 15 18 19 20 21 22 25 29 33 36 37 34 32 35 37 36 33 32 31 30 31 30 29 28 28 27 26 25 25 24 23 23 23 22 22 23 24 25 24 23 23
5 4 4 2 3 4 5 6 6 5 6 6 6 6 6 6 4 5 6 5 6 6 5 5 6 8 6 6 6 6 7 8 8 7 7 7 7 7 7 8 11 13 13 12 13 17 19 17 18 21 23 26 30 34 36 37 36 37 38 37 35 34 32 31 32 32 31 30 29 28 28 27 27 27 25 25 24 24 23 23 24 24 25 25 24 24
4 2 3 2 3 3 5 5 6 7 9 7 6 5 5 7 7 5 5 6 7 7 6 6 8 8 5 6 7 7 9 8 7 7 7 6 7 7 6 8 12 14 15 17 17 18 19 18 18 20 22 25 30 35 36 37 39 39 38 36 35 34 32 32 34 34 32 31 30 29 29 29 28 28 27 26 26 25 25 25 24 25 25 25 25 25
2 2 3 4 4 4 8 9 6 6 8 7 6 5 5 7 8 7 7 7 7 7 7 7 7 6 5 6 8 9 9 8 8 9 8 6 7 7 7 10 14 16 19 20 18 17 19 21 21 23 24 26 31 35 36 38 40 38 34 33 34 33 32 33 35 35 34 33 32 31 31 30 30 30 29 28 28 27 27 27 27 27 27 27 26 26
1 1 2 3 3 4 10 11 4 3 8 8 7 8 8 8 8 8 7 7 6 7 8 9 8 7 7 8 8 8 8 9 9 9 9 8 7 8 9 13 17 18 20 20 19 20 23 24 25 26 27 28 30 33 34 36 37 35 33 33 33 33 34 35 36 35 35 34 33 33 32 32 32 32 31 30 29 28 28 28 29 29 28 27 25 24
3 4 3 3 4 6 11 9 2 1 7 9 7 8 9 9 8 8 8 7 7 9 9 9 9 8 8 9 8 7 8 9 9 8 8 8 8 10 13 15 16 17 20 20 18 20 23 25 26 27 28 28 30 33 36 37 36 35 34 33 32 34 35 36 35 34 34 34 35 35 34 34 34 33 32 32 31 29 28 28 28 28 28 26 25 23
7 7 6 6 8 10 13 12 5 4 6 11 10 8 8 7 7 8 9 10 10 10 9 8 9 8 8 9 10 10 9 9 9 8 7 8 11 15 17 17 17 18 20 20 19 20 23 25 26 25 26 29 31 33 36 37 37 35 35 35 34 35 36 37 35 34 34 35 36 37 36 36 35 35 34 33 32 31 30 28 27 27 27 26 25 23
Wind_Direction
70 56 33 175 201 219 211 180 153 153 127 120 120 127 150 162 197 203 181 196 131 101 271 235 338 261 188 182 158 139 128 133 159 189 190 194 220 233 243 261 249 196 196 183 153 140 136 138 137 134 132 126 114 101 90 85 75 68 62 54 51 44 36 32 31 30 27 24 19 15 13 14 16 16 15 15 13 10 6 360 351 341 333 325 320 327
59 72 348 231 211 191 170 150 121 99 87 94 117 132 137 172 203 198 120 176 115 88 261 148 100 210 185 177 167 148 164 180 189 215 213 196 214 223 226 239 231 188 180 167 165 160 154 154 154 154 155 152 132 112 95 83 77 72 63 56 52 44 36 33 30 28 29 28 22 18 15 12 14 16 15 16 15 12 8 2 354 343 329 319 313 320
31 70 268 251 189 106 85 104 104 92 84 82 103 129 139 190 189 24 70 171 74 77 210 148 109 109 121 186 190 172 194 199 192 234 241 203 215 222 223 228 206 191 186 181 197 188 176 172 171 173 164 149 131 110 94 83 76 69 60 54 48 38 32 30 26 26 29 27 22 20 18 12 13 17 16 15 16 14 9 6 1 351 336 321 311 307
36 257 260 236 136 98 70 73 94 89 75 88 108 124 157 185 145 78 110 154 17 52 149 130 84 19 202 220 230 199 207 173 165 217 248 226 227 237 253 248 202 212 204 200 219 208 196 188 174 166 150 135 125 112 98 82 66 55 49 43 37 32 29 26 24 24 25 21 19 21 22 19 19 21 15 12 17 16 11 9 5 360 350 336 325 311
218 248 240 80 89 101 98 84 100 105 55 1 145 139 159 171 162 165 142 125 29 31 111 117 64 322 215 214 237 207 201 226 159 186 236 251 248 260 286 266 220 220 207 207 224 219 211 201 177 160 148 140 132 115 88 65 50 42 39 35 31 29 25 22 19 18 16 12 13 16 20 22 23 20 15 13 13 14 13 11 8 2 353 343 335 323
253 260 182 90 57 69 103 134 150 131 99 325 227 181 174 164 148 133 127 116 46 21 223 129 64 293 247 211 225 201 205 228 197 182 224 250 255 255 258 247 227 220 212 213 219 215 213 209 190 168 156 150 133 94 65 47 35 31 32 31 29 25 21 17 15 14 11 10 12 13 16 18 17 13 14 15 11 10 13 14 13 7 353 342 335 326
264 342 71 112 93 68 69 97 186 133 106 336 238 186 157 132 129 141 143 128 91 210 230 123 118 269 306 249 214 184 209 228 223 220 224 234 246 247 245 243 227 217 220 223 220 204 204 211 201 179 168 165 136 90 60 35 26 28 32 31 29 22 17 16 15 12 13 13 12 12 14 17 16 9 9 14 14 11 12 16 20 17 5 352 341 329
226 8 32 68 80 75 63 80 190 132 105 259 237 150 138 139 150 165 153 133 167 167 42 59 107 178 305 276 219 171 192 230 232 236 234 224 232 238 242 243 230 218 218 220 215 197 201 209 204 191 185 183 164 129 59 36 34 36 38 33 29 20 11 13 13 9 13 14 11 9 10 17 20 11 6 11 17 16 12 16 21 22 21 13 1 347
211 21 39 93 74 82 158 209 182 133 113 247 188 121 128 139 150 154 128 110 105 92 24 302 4 93 268 285 309 159 189 230 233 232 234 225 223 229 235 240 232 218 206 202 203 205 210 208 201 197 196 194 176 142 98 80 60 50 45 29 18 6 358 2 5 3 7 9 8 9 8 12 18 11 5 8 13 14 14 20 23 21 24 23 16 7
265 260 202 128 93 166 219 228 178 141 144 202 127 90 72 78 77 83 107 106 61 75 234 243 194 164 268 285 347 127 195 230 231 229 231 226 223 224 228 233 228 212 197 194 201 207 210 208 200 197 202 201 180 138 116 104 87 76 44 14 355 343 342 352 354 358 3 5 9 11 8 8 10 5 2 4 5 6 10 17 19 19 21 19 16 24
312 295 185 113 122 195 176 103 170 150 115 135 104 65 48 45 47 50 64 91 73 347 254 233 189 171 265 281 224 185 210 220 219 222 221 218 223 223 222 223 213 201 195 188 196 200 195 199 200 200 209 204 180 170 173 158 151 178 326 346 338 328 326 332 341 354 1 5 10 9 4 3 6 4 1 1 1 359 2 8 11 15 20 19 23 38
342 9 225 265 196 164 103 77 62 12 61 98 79 64 67 3 13 33 359 44 88 260 259 240 179 154 209 267 236 228 245 236 215 216 209 203 212 218 217 217 206 194 186 180 186 186 175 183 195 204 212 205 190 200 199 185 199 228 261 312 332 326 278 286 330 347 352 353 358 355 356 1 4 4 0 360 0 357 356 1 2 5 12 20 30 39
353 40 302 305 253 118 101 91 6 360 34 75 69 69 85 359 4 15 324 5 174 240 255 227 168 157 223 253 242 237 249 249 230 224 216 202 204 211 212 211 203 187 181 180 183 179 172 181 195 205 210 205 202 209 205 197 213 226 242 286 325 331 188 292 331 340 341 336 331 338 346 354 357 358 356 355 357 355 354 357 357 359 8 21 34 41
340 314 329 346 340 58 111 127 244 338 30 66 108 104 100 93 60 299 270 310 267 257 294 285 243 236 273 267 231 226 244 250 243 238 233 217 205 205 206 202 194 187 185 183 182 181 181 187 197 205 204 204 211 212 207 204 214 223 234 268 306 261 191 285 330 334 336 320 304 319 333 341 347 350 349 347 351 354 355 359 3 4 11 26 38 43
67 307 306 326 286 342 74 143 170 148 86 61 152 131 131 151 140 222 228 206 250 263 305 303 260 180 224 257 227 230 258 270 262 255 254 247 210 164 169 178 180 190 190 186 187 187 186 190 199 204 200 204 215 215 209 207 214 222 230 255 277 218 196 263 312 323 340 311 283 299 318 327 334 339 341 343 349 355 1 6 10 13 19 31 44 48
91 253 261 279 269 59 42 200 151 103 68 283 162 106 109 187 140 119 185 175 184 271 287 276 238 210 219 262 280 294 312 314 294 268 253 250 201 130 147 177 181 190 188 187 194 193 190 191 196 201 199 205 215 215 211 210 215 221 228 243 251 214 201 236 270 282 321 292 281 305 314 316 319 327 337 344 354 4 13 20 23 28 33 38 48 53
64 273 282 324 334 80 61 225 125 89 131 249 114 188 235 170 116 108 188 35 69 93 272 268 264 292 319 302 311 346 347 339 345 321 260 245 183 148 174 186 183 190 189 190 197 194 190 189 193 199 199 204 213 213 209 210 216 221 223 228 229 215 210 226 250 248 246 283 334 341 326 314 317 329 341 357 17 25 31 37 39 39 42 43 42 44
127 269 294 4 47 292 313 95 46 54 115 81 292 224 203 114 91 104 128 11 43 193 280 320 269 295 347 307 318 348 331 309 329 333 307 256 177 188 200 192 187 189 185 192 197 192 191 191 193 197 198 205 212 211 206 208 215 220 223 223 221 220 223 230 242 235 227 323 358 359 349 343 351 350 0 34 50 49 44 45 43 40 41 42 38 34
110 313 298 308 221 295 339 85 29 351 20 74 218 200 108 121 224 61 116 79 42 237 286 314 298 270 208 228 292 307 266 262 288 303 274 215 207 214 210 193 185 178 176 191 194 191 195 195 195 194 197 205 211 209 206 208 214 220 224 224 221 227 233 230 228 228 231 318 353 0 355 3 18 21 45 67 60 50 51 53 52 47 45 43 39 35
84 95 287 282 259 314 360 59 174 314 339 7 58 23 31 139 163 171 142 160 176 195 256 305 329 279 229 218 216 238 240 226 225 241 234 223 219 217 208 191 184 185 190 195 195 197 198 196 195 194 197 205 208 207 205 207 212 220 224 224 223 227 231 224 219 224 230 311 349 350 334 358 21 29 52 64 53 57 67 67 62 55 50 45 41 39
51 85 256 292 319 359 352 245 165 184 287 357 26 321 312 82 133 193 24 99 141 154 181 238 305 271 251 210 193 229 241 215 203 211 220 226 226 223 213 197 193 198 198 198 198 198 197 195 195 196 200 206 208 206 206 207 211 220 226 226 227 229 230 223 216 214 219 292 333 297 304 6 32 45 71 72 63 71 76 72 66 59 51 45 42 41
102 102 166 303 342 346 262 250 188 177 181 157 169 209 182 145 139 156 306 317 103 133 163 162 248 270 261 209 209 235 235 221 218 214 219 227 224 223 219 204 200 203 203 205 202 197 194 192 192 195 199 204 207 207 207 209 213 221 227 229 232 233 232 228 220 211 213 263 288 219 249 32 68 143 140 111 91 87 82 72 67 59 47 42 41 42
149 103 85 285 280 269 268 278 289 170 152 126 131 174 149 128 114 131 216 265 63 97 150 127 200 270 265 229 234 252 242 235 229 218 224 234 227 222 222 213 208 212 211 206 199 197 196 193 193 195 198 202 206 207 207 212 218 225 229 232 235 236 232 229 223 212 207 219 210 186 145 100 170 176 168 146 122 108 91 77 67 53 41 39 38 38
83 78 48 310 294 305 304 323 14 49 85 86 24 15 111 88 91 141 176 181 164 181 152 102 270 269 276 278 267 266 260 249 236 220 222 233 237 229 221 215 211 211 208 198 194 194 189 188 193 198 200 202 205 206 207 216 224 228 231 233 236 237 230 224 217 207 201 194 197 188 149 152 181 178 173 160 144 129 103 85 68 49 40 38 36 36
21 93 73 25 345 342 340 351 357 354 29 78 313 328 39 80 86 117 125 91 184 214 157 154 244 254 271 309 320 315 313 275 240 223 222 229 231 225 219 218 214 205 201 198 190 183 180 184 194 201 203 203 202 203 211 221 227 229 231 232 236 233 223 218 213 205 198 189 196 195 163 154 176 179 177 169 159 149 128 107 80 52 44 39 34 36
108 152 119 111 113 288 288 286 270 283 323 322 297 335 10 69 99 162 112 91 220 240 157 165 230 264 289 317 329 332 339 311 274 239 230 238 232 222 216 214 208 200 202 201 192 187 187 187 197 204 205 202 197 201 215 225 228 229 230 231 233 228 217 214 213 202 194 192 198 197 171 159 174 176 176 176 173 162 142 116 85 56 50 42 34 38
99 134 144 144 175 198 203 228 226 181 233 289 293 305 317 89 101 107 100 136 193 185 197 219 217 262 294 300 304 305 303 289 282 262 236 242 240 231 224 215 209 207 207 203 193 185 182 190 201 205 204 199 196 204 216 224 226 227 227 227 227 222 214 213 212 201 195 195 198 194 175 167 178 179 180 187 183 167 147 120 88 64 56 47 38 48
97 310 240 154 196 216 204 220 223 133 201 237 263 272 235 181 137 126 167 211 168 127 268 257 204 214 268 267 265 278 275 263 265 256 241 239 235 231 228 218 216 216 208 196 192 190 193 201 204 202 200 197 200 209 217 222 225 225 224 223 220 215 212 212 209 201 196 195 197 194 183 174 180 179 177 179 173 164 152 132 100 74 64 56 53 69
112 248 236 163 248 256 226 235 238 174 236 227 226 260 261 204 173 186 218 207 162 175 246 240 185 202 248 259 252 256 255 251 255 258 261 250 219 211 214 212 212 210 202 197 201 203 206 207 202 200 199 198 204 212 216 218 221 221 219 217 213 209 209 209 207 201 196 195 196 195 193 186 180 175 171 170 166 161 154 137 109 83 71 72 79 90
127 243 225 140 310 295 267 262 243 201 270 286 257 254 255 236 212 212 229 210 187 216 245 236 215 233 249 253 255 258 256 248 258 275 279 261 222 196 201 214 218 210 202 204 207 207 207 207 202 201 200 201 206 211 212 215 217 215 212 210 206 205 206 207 205 200 196 194 194 196 200 194 184 179 175 171 166 160 153 136 115 92 79 88 98 103
88 264 205 94 359 298 290 300 284 172 216 272 275 267 253 256 251 225 219 211 199 234 255 249 250 265 262 249 254 267 278 281 276 274 268 257 238 204 200 215 220 216 212 213 211 208 208 208 203 201 202 206 209 210 211 213 212 209 208 206 204 204 204 205 204 200 197 195 195 201 207 199 189 184 179 173 167 161 154 141 124 103 95 105 108 109
103 233 26 71 35 280 295 346 351 350 339 273 278 274 257 249 243 215 201 195 189 209 245 261 264 258 259 270 278 279 284 282 270 265 265 261 238 206 211 221 217 214 216 215 210 206 207 207 201 202 207 209 209 210 210 206 201 206 208 205 203 203 203 204 203 200 200 198 198 207 212 203 193 186 180 175 170 164 157 147 134 119 115 117 115 113
130 138 137 112 198 267 294 352 1 4 359 303 270 249 230 223 221 235 261 233 204 179 186 221 236 238 250 315 320 297 287 272 259 253 255 258 244 214 219 227 223 218 217 212 206 204 206 207 204 205 209 210 209 209 208 201 201 209 210 204 201 202 201 202 201 200 202 201 202 209 211 203 194 187 182 179 173 169 163 153 142 132 128 126 119 114
131 140 175 173 201 268 293 341 354 355 332 269 241 193 185 204 199 219 265 257 220 191 201 228 249 263 274 276 263 266 270 264 261 257 245 244 245 235 232 232 229 227 221 211 207 208 209 207 207 209 212 214 211 208 207 205 204 207 206 200 199 200 200 202 201 201 204 202 203 206 206 201 194 188 186 182 177 173 167 157 148 141 136 129 121 114
145 145 174 164 162 254 313 17 358 292 242 245 265 247 226 226 188 208 258 264 231 223 242 260 263 262 264 259 248 251 262 266 276 280 267 252 240 237 240 241 233 223 215 210 210 215 214 208 208 212 215 216 212 207 204 200 197 199 202 198 197 198 200 202 202 203 204 203 202 202 201 197 192 190 189 184 180 177 170 162 154 149 144 132 121 115
154 152 152 145 158 247 358 63 212 256 261 281 303 290 228 190 127 182 296 287 244 212 208 233 253 255 259 264 260 259 266 276 289 280 262 252 238 228 229 234 228 216 211 209 207 211 212 208 208 212 213 212 208 203 200 196 193 198 201 197 196 198 199 201 204 204 203 203 202 201 198 195 192 192 190 186 183 179 172 166 160 157 153 141 128 120
153 146 164 210 206 168 154 209 254 302 314 314 309 211 175 131 135 130 333 282 255 213 187 209 252 273 277 275 278 282 287 325 337 305 274 259 243 229 230 234 228 218 219 220 218 221 221 215 212 213 211 207 203 200 197 193 191 193 195 194 195 198 198 202 205 204 202 203 203 202 199 196 194 193 190 188 186 182 176 170 164 164 164 155 143 133
151 159 177 199 217 113 110 281 313 336 307 276 252 245 256 203 157 137 103 294 278 255 201 195 226 269 287 298 308 320 19 36 354 303 287 289 271 242 242 246 235 223 223 222 222 228 228 220 216 214 209 203 201 199 195 191 188 188 189 192 195 197 198 203 205 204 203 203 203 203 201 198 198 196 193 192 189 185 180 173 169 172 173 168 158 149
69 49 131 149 176 115 123 190 230 232 252 246 246 263 266 199 152 103 49 315 283 274 213 183 212 259 269 282 308 8 53 25 325 279 277 298 296 267 248 254 249 237 229 222 219 222 221 213 208 207 203 199 198 197 193 189 186 185 187 192 195 196 199 204 206 206 205 203 203 204 202 200 201 201 198 196 194 190 185 178 174 176 178 179 175 166
50 33 103 151 206 171 148 193 225 234 250 244 238 250 237 167 106 70 22 283 262 258 212 180 211 253 246 251 297 43 69 350 271 255 271 295 300 288 262 256 258 249 233 223 220 219 214 204 197 195 198 201 199 195 190 187 185 184 187 191 193 196 202 208 209 207 206 204 203 204 202 201 203 203 202 200 198 194 189 184 182 181 182 185 186 181
69 56 144 182 208 178 169 221 264 262 250 241 233 217 190 127 70 73 228 239 230 234 215 185 206 236 221 212 226 206 223 223 215 241 276 287 285 293 292 270 253 243 228 220 216 211 204 201 200 200 203 204 198 191 187 185 184 185 189 190 192 199 207 211 210 207 205 203 203 204 203 202 204 206 205 204 201 196 192 190 190 190 188 188 191 190
170 128 158 170 181 170 172 207 282 289 258 214 193 191 170 134 97 206 223 221 197 211 216 201 214 224 205 203 213 217 238 245 237 254 271 252 229 246 258 233 185 166 177 191 198 199 197 197 201 203 204 201 195 191 188 186 185 187 188 190 197 205 210 210 208 205 203 202 204 205 204 203 204 207 207 206 202 197 193 194 198 198 194 193 194 196
182 187 231 200 178 147 117 126 278 286 257 174 128 100 149 181 200 212 226 236 215 214 212 212 225 224 203 217 233 232 247 270 269 265 271 262 244 244 246 233 213 193 182 179 190 196 192 190 195 200 200 197 195 193 189 187 188 187 188 195 203 208 209 208 206 204 202 202 204 205 204 204 205 206 207 206 203 199 196 197 201 202 200 198 198 198
194 183 213 235 190 142 146 196 210 230 228 192 157 159 203 213 194 164 184 239 238 224 208 211 232 229 204 213 238 242 245 259 260 255 262 263 251 246 245 237 229 221 209 201 203 200 193 190 192 193 195 196 195 193 191 191 190 188 193 202 207 206 206 206 203 202 201 202 204 205 205 205 205 206 207 206 204 201 198 198 200 203 203 202 201 201
224 196 190 224 221 181 190 214 221 226 227 221 216 210 220 242 219 156 182 242 257 228 197 196 235 240 212 209 235 248 246 247 245 236 236 243 241 234 236 235 229 225 220 214 210 203 198 197 191 186 189 196 196 194 194 193 191 192 199 206 207 205 205 203 199 199 200 201 204 206 206 205 205 206 207 206 204 202 198 195 198 201 203 204 204 205
245 194 157 200 254 261 252 235 230 247 250 242 241 237 239 261 253 180 189 234 247 234 211 200 233 247 224 197 215 244 247 244 249 247 239 245 254 246 240 243 242 235 225 218 215 207 200 197 193 189 190 195 196 196 196 196 196 200 205 207 206 205 204 200 197 198 199 201 204 205 205 205 204 205 206 207 207 206 202 198 198 200 203 205 206 208
280 187 165 217 249 268 276 252 218 231 244 244 254 263 255 252 247 217 207 231 243 243 235 225 235 247 234 195 201 233 245 239 243 256 252 248 254 252 243 244 246 240 229 223 220 210 197 192 194 196 195 195 197 198 198 199 202 206 209 208 205 205 203 199 198 198 199 201 203 204 204 205 204 204 206 206 206 206 206 204 203 202 203 205 206 208
275 178 187 232 221 223 259 257 232 235 254 246 240 253 256 253 251 240 226 231 245 258 257 249 240 231 219 209 209 220 237 235 227 235 243 239 239 241 234 233 238 238 233 230 224 208 197 196 198 199 200 200 200 199 200 202 205 208 209 209 207 204 201 199 198 199 200 201 202 203 205 205 205 204 205 205 206 206 206 206 206 207 207 208 209 209
268 219 207 244 247 264 274 268 247 273 281 259 229 231 242 247 251 254 252 245 247 258 265 264 251 222 208 220 218 207 223 237 228 226 235 238 235 236 233 232 234 235 234 231 223 210 204 203 202 202 205 206 202 200 203 207 208 209 210 210 209 204 200 199 199 199 200 201 202 203 205 205 205 206 206 206 207 208 210 210 211 213 215 217 219 221
247 234 219 257 271 265 269 268 226 218 277 270 243 227 231 232 230 243 263 265 251 249 255 260 261 246 225 227 222 201 214 237 235 223 229 236 237 237 236 234 234 237 238 234 225 216 212 210 209 208 209 208 205 203 206 210 211 211 212 212 210 206 202 199 197 198 199 200 201 203 204 204 204 206 207 207 207 208 210 212 214 217 220 222 225 229
228 223 210 231 247 248 258 266 243 191 248 270 264 239 225 221 212 221 242 252 251 249 247 243 250 258 254 242 227 210 215 238 240 225 222 237 240 238 238 237 233 235 237 231 219 215 217 217 215 214 213 212 210 207 208 210 212 212 213 213 212 209 205 200 196 196 199 200 202 204 204 203 204 205 206 208 208 207 208 209 212 216 219 222 224 227
Height
785 789 795 795 795 794 792 795 798 799 799 802 807 812 815 818 817 814 815 815 812 819 827 828 829 832 833 832 830 831 831 833 833 830 829 831 830 829 830 830 830 830 830 830 831 831 831 832 833 833 833 834 834 834 834 834 835 835 835 835 835 835 835 834 834 833 833 832 831 831 831 830 831 830 830 830 829 828 828 827 827 827 826 826 826 825
787 795 798 792 793 794 794 798 800 801 802 802 806 811 816 817 814 812 814 817 814 815 825 829 831 834 834 833 830 830 832 833 833 832 831 831 830 828 828 828 829 829 829 829 830 830 831 831 832 833 833 833 834 834 834 835 835 835 835 835 835 835 835 834 833 833 832 832 833 832 832 831 831 831 830 829 829 828 828 827 826 826 825 825 825 824
795 799 795 790 795 798 799 800 797 799 801 803 807 811 816 817 815 814 814 817 817 816 826 833 834 836 834 831 830 830 832 833 832 832 832 831 828 825 824 826 828 829 828 829 829 829 830 831 831 832 833 834 834 835 835 835 835 835 835 835 835 834 833 833 833 833 833 834 834 834 833 832 832 831 830 830 829 828 827 826 826 825 824 824 824 824
803 799 793 794 796 793 798 801 796 798 802 804 807 809 814 816 815 817 819 821 821 821 828 834 838 839 835 832 831 829 829 830 830 831 830 829 826 824 824 826 828 829 828 828 828 829 830 831 832 833 834 835 835 836 836 835 835 834 834 833 833 833 832 833 833 834 835 835 835 835 834 833 832 832 831 830 829 828 827 826 826 825 824 823 823 823
800 795 792 796 795 790 795 800 796 797 805 809 807 805 807 811 813 815 819 823 826 829 830 832 838 839 836 836 835 830 828 828 829 830 830 828 826 825 826 826 827 827 827 828 828 829 830 831 833 834 835 835 835 835 834 834 833 833 833 832 832 833 833 834 834 835 835 836 835 835 834 833 832 831 830 829 829 828 827 826 826 825 824 823 823 822
796 794 793 793 794 795 795 798 797 798 806 810 806 802 799 803 809 812 817 823 830 837 832 830 838 836 834 838 836 831 830 829 829 830 830 828 825 826 826 825 826 826 826 827 827 828 830 831 833 833 834 835 834 834 833 833 833 832 832 833 833 834 834 835 835 835 836 836 836 835 834 833 832 832 831 830 830 829 828 827 826 826 824 824 823 822
795 794 794 791 792 797 797 799 801 801 807 809 804 801 800 801 806 811 814 818 828 834 829 828 837 837 833 832 832 831 832 830 828 828 829 827 825 824 824 823 824 825 826 826 827 828 830 831 832 833 833 833 832 832 833 833 833 833 833 834 835 835 836 836 836 836 837 837 836 836 835 835 834 833 833 832 832 831 830 829 828 827 825 824 823 823
793 791 795 792 790 795 798 799 801 801 804 806 802 801 802 801 805 808 809 815 824 829 830 831 834 837 832 825 827 830 831 832 828 827 826 825 824 822 821 821 821 823 825 826 828 828 829 829 831 832 832 832 832 832 833 833 833 833 834 835 836 837 837 837 837 837 838 837 837 837 837 837 836 835 834 833 833 832 831 830 828 827 826 825 824 823
793 791 793 791 792 798 797 795 797 798 800 802 802 804 805 804 806 808 811 819 825 828 835 837 833 838 835 823 828 831 831 834 829 824 823 821 821 820 819 819 819 821 823 825 827 827 828 829 830 832 832 833 833 832 833 833 834 834 835 836 837 837 838 838 838 838 838 838 838 838 837 837 836 835 835 833 832 832 831 830 829 828 827 825 824 823
792 792 791 790 793 796 792 792 795 793 796 801 804 806 809 813 813 815 817 819 824 828 832 835 833 840 836 822 829 835 832 831 824 818 818 816 818 818 817 818 818 821 822 823 825 826 827 829 830 831 832 833 833 833 833 834 835 836 836 837 837 838 838 838 839 838 839 838 838 838 838 837 836 835 834 833 832 831 830 830 829 828 827 826 825 824
793 791 791 790 792 793 791 796 799 796 797 799 801 801 805 811 813 818 821 818 827 833 830 833 831 835 835 822 824 829 819 814 812 813 814 814 815 815 814 815 816 819 820 822 824 825 827 829 830 831 832 833 832 833 834 834 836 837 837 837 838 838 839 838 839 839 839 839 838 838 838 837 837 835 834 833 832 831 830 830 829 828 827 826 825 824
794 790 792 790 789 792 791 795 801 800 801 800 799 801 807 814 815 819 823 821 832 836 832 839 836 833 836 821 812 814 807 803 805 806 808 810 810 810 810 811 813 816 819 821 823 825 827 828 829 830 830 831 831 833 835 835 836 837 837 838 838 838 838 838 839 838 838 838 838 838 838 837 837 836 835 833 832 831 830 830 829 828 827 826 825 824
796 793 794 791 788 791 791 796 801 800 800 799 801 807 816 827 829 829 832 834 838 835 832 840 836 832 831 813 801 805 802 801 802 798 799 803 805 805 806 807 809 813 816 819 822 823 826 826 827 828 828 829 830 833 834 834 835 837 837 837 837 837 838 838 838 838 837 838 837 837 837 837 836 836 835 834 833 832 831 830 829 828 827 826 825 825
802 799 795 791 790 791 792 798 803 801 800 800 802 809 819 833 842 843 847 849 843 834 833 838 834 830 825 808 800 801 797 797 798 796 795 796 800 802 803 805 807 810 813 815 819 821 823 824 824 825 826 827 829 832 833 834 835 836 837 837 837 837 838 838 838 838 837 837 837 837 837 836 836 835 835 834 833 832 831 830 829 828 827 826 826 825
817 812 799 794 795 793 791 795 799 799 801 807 809 810 814 822 831 838 841 839 837 835 836 836 830 826 818 806 802 801 799 800 798 796 795 794 797 801 803 806 808 809 811 813 816 818 820 821 822 824 825 826 829 831 831 833 834 835 836 837 837 837 838 838 838 838 837 837 837 837 836 836 836 835 834 833 832 832 831 830 829 828 827 827 826 826
825 818 801 796 798 794 792 795 796 797 804 814 815 810 812 812 816 833 844 841 838 837 836 835 829 822 814 804 803 804 801 801 799 797 797 795 796 800 803 806 808 809 811 812 814 816 818 820 821 822 823 825 828 829 830 832 833 834 835 836 837 837 838 838 838 838 837 837 837 837 836 836 835 835 834 833 832 831 831 830 830 829 828 827 827 826
823 815 800 797 797 793 795 795 794 798 804 812 813 809 814 815 812 827 846 849 848 841 836 837 828 817 813 805 801 803 798 797 801 799 798 797 798 800 802 804 806 808 809 810 811 813 816 818 819 821 822 824 827 828 829 831 832 833 834 836 836 837 838 838 838 837 837 837 837 836 836 835 835 834 834 833 832 832 831 831 830 830 829 828 828 827
819 813 802 800 798 794 797 797 795 798 801 807 810 808 813 817 814 820 833 843 850 845 837 838 833 823 821 811 800 800 797 795 800 801 801 802 800 800 801 803 805 806 808 810 810 812 815 816 818 819 821 824 826 827 828 830 832 833 834 835 836 837 837 837 837 837 837 836 836 836 835 835 834 834 833 833 833 832 832 831 831 830 830 829 829 828
819 814 806 805 803 797 795 797 799 801 800 802 805 807 811 816 817 822 830 835 844 848 841 838 839 833 826 813 799 796 795 792 799 804 802 801 800 799 800 803 805 806 808 809 810 811 813 814 816 818 820 823 825 826 828 829 831 832 834 835 835 836 836 836 836 836 836 836 835 835 834 834 834 833 833 833 833 833 832 832 831 831 830 830 829 829
818 817 812 805 803 802 797 799 808 809 804 802 803 807 813 816 819 822 827 829 832 844 846 838 834 827 816 809 799 792 792 792 797 801 800 799 798 798 799 801 803 805 805 807 808 809 811 812 814 816 818 822 823 824 826 828 830 831 833 834 835 836 836 836 836 835 835 835 835 834 834 833 833 833 833 833 833 833 833 833 832 832 831 831 830 829
815 818 818 807 801 806 805 804 811 811 809 808 807 810 813 819 825 824 827 832 829 835 845 843 835 819 804 802 797 789 790 792 793 794 795 798 798 796 799 800 801 803 803 805 806 807 809 811 813 815 818 820 822 823 825 826 828 830 832 833 834 835 835 835 835 835 835 835 834 834 834 833 833 833 833 833 833 833 833 833 833 833 832 832 831 830
812 816 819 813 808 809 807 805 808 808 809 810 809 812 814 817 823 824 830 837 832 832 839 842 837 816 797 798 797 790 791 793 794 794 793 796 797 796 798 798 799 801 802 803 804 805 808 810 812 815 817 819 821 822 823 824 827 829 831 832 832 833 834 834 835 835 835 835 834 834 834 833 833 833 834 834 834 834 834 834 834 834 833 833 832 831
810 814 816 816 814 811 809 809 812 811 810 811 812 816 818 817 818 822 828 831 832 836 839 840 839 816 795 799 800 796 796 795 796 798 795 795 796 796 797 797 799 800 801 803 805 806 808 809 811 814 815 817 819 819 821 823 825 828 829 831 831 832 833 833 834 835 835 835 835 834 834 833 834 834 834 835 835 835 835 835 835 835 834 834 833 832
811 816 818 818 816 812 807 807 812 813 811 814 816 818 820 817 816 819 824 825 827 833 833 836 838 815 793 797 799 796 799 797 797 798 795 795 796 796 797 797 798 799 800 803 804 805 808 809 811 812 813 815 816 817 819 821 824 826 828 829 830 831 832 833 834 835 835 835 835 835 834 834 834 834 834 835 835 835 836 836 836 836 835 835 834 833
811 820 824 825 826 822 817 814 814 813 813 817 820 822 820 819 820 822 826 828 827 828 827 829 830 813 794 795 794 791 794 792 792 796 795 794 794 794 796 796 797 799 799 801 803 804 806 807 808 809 810 812 814 815 818 820 822 825 826 828 829 830 832 833 834 835 835 835 835 835 835 834 834 834 835 835 836 836 837 837 837 837 836 836 835 835
811 820 822 826 834 836 831 826 822 818 819 822 822 822 820 821 822 822 824 828 827 830 831 825 819 807 795 792 790 788 790 787 786 793 795 794 793 793 794 795 795 797 797 798 800 801 803 804 806 807 808 810 812 814 816 818 820 823 824 826 828 829 831 832 833 834 835 835 835 835 835 835 835 835 835 836 836 837 837 837 838 837 837 837 837 836
815 822 820 820 825 827 824 820 822 823 822 821 820 820 822 823 823 821 824 826 824 829 829 817 811 807 798 793 791 787 787 786 785 787 790 792 792 792 792 793 794 795 795 796 798 800 802 803 803 805 807 808 810 812 813 815 818 820 822 824 826 828 830 832 833 833 834 835 835 835 835 835 835 835 836 837 837 837 838 838 838 838 838 838 838 837
815 819 821 821 818 819 818 817 823 827 823 820 820 819 821 824 823 822 823 822 822 827 825 813 811 812 801 794 791 787 785 785 783 782 784 787 789 790 791 793 794 794 795 796 798 798 799 799 800 803 805 806 808 809 810 813 815 817 819 822 825 827 829 830 831 832 833 834 834 835 835 835 835 835 836 837 837 838 839 839 839 839 839 839 839 838
813 816 823 825 819 817 820 821 824 826 823 822 821 818 818 822 824 822 819 818 820 821 816 810 812 811 800 792 790 785 783 784 783 783 784 785 786 788 790 791 792 793 794 795 795 795 796 796 798 800 802 803 805 806 808 811 813 815 817 820 823 825 827 829 830 831 832 833 834 834 835 835 835 836 836 837 838 838 839 839 840 840 840 840 839 839
814 817 824 827 821 817 819 821 824 825 823 822 820 817 816 817 820 821 819 818 819 816 810 810 815 812 801 795 790 784 784 787 788 787 786 784 783 785 788 789 790 791 791 791 790 791 792 793 794 797 799 801 802 803 805 808 810 812 814 818 820 823 825 827 828 830 831 832 833 834 834 835 835 836 836 837 838 839 839 840 840 840 840 840 840 840
815 821 827 827 824 820 816 819 826 828 827 824 820 818 817 817 819 822 821 819 819 817 812 814 819 813 801 796 792 787 788 789 787 785 783 781 782 784 785 786 788 788 788 788 787 788 789 791 793 795 797 798 798 800 802 804 807 811 813 816 819 821 823 825 827 828 829 831 832 833 834 834 835 836 836 837 838 839 839 840 840 841 841 841 841 841
814 823 828 826 827 824 818 821 827 826 826 824 817 813 814 816 817 815 814 813 811 809 810 814 814 803 792 793 792 786 786 787 783 781 780 780 782 784 782 781 783 784 784 784 785 786 788 789 790 792 793 794 795 797 800 803 808 811 812 814 817 820 822 824 825 827 828 829 831 832 833 834 834 835 836 837 838 839 839 840 841 841 842 842 842 841
817 819 822 826 828 825 823 828 827 822 825 822 810 804 805 809 811 808 806 806 805 805 807 808 803 792 790 795 792 783 781 781 779 777 777 776 778 780 780 778 778 778 779 780 781 783 784 785 786 787 788 789 791 793 796 800 803 806 808 811 815 818 821 822 823 825 827 828 829 831 832 833 834 835 836 837 838 839 839 840 841 842 842 842 843 842
819 816 820 827 826 823 827 828 826 828 830 817 802 799 801 801 804 805 802 800 802 804 803 801 797 793 793 794 790 784 781 777 775 775 775 775 775 776 775 775 775 776 776 777 779 779 780 781 782 784 785 786 788 790 793 796 799 802 806 810 813 816 819 821 822 823 825 826 828 829 831 832 833 834 835 836 837 838 839 840 841 842 843 843 843 843
818 818 824 828 827 827 828 827 829 831 822 805 798 802 804 802 804 805 801 798 801 802 799 797 794 789 788 787 786 785 782 778 777 777 775 775 775 773 773 772 772 773 774 775 777 777 777 779 780 782 783 785 787 790 793 795 799 804 807 809 812 815 817 819 820 822 823 825 826 828 829 830 832 833 835 836 837 838 839 840 841 842 843 844 844 844
813 818 823 827 829 830 829 831 831 823 809 799 798 801 803 804 806 805 800 795 794 796 796 792 787 784 784 784 783 784 784 782 780 776 773 773 773 772 771 769 768 770 771 771 772 772 773 775 776 778 779 782 786 788 790 793 797 802 806 808 811 813 815 817 819 820 821 823 824 826 827 829 831 832 834 835 836 838 839 840 841 842 843 844 844 844
811 815 818 822 828 830 831 832 825 816 810 801 794 794 797 796 796 799 801 794 787 788 791 787 783 783 783 781 781 783 784 781 776 772 769 770 771 770 769 767 766 767 768 768 769 770 771 773 774 776 778 781 783 785 788 791 795 799 804 807 809 811 813 816 817 818 819 821 822 824 826 828 829 831 833 834 835 837 838 839 840 841 842 843 844 845
811 812 812 817 826 830 832 830 826 824 818 803 791 791 794 793 792 794 800 796 784 783 789 786 781 783 782 780 780 780 778 777 775 772 768 767 769 768 767 767 766 766 766 767 769 770 771 773 775 776 779 781 782 784 787 789 793 798 802 805 807 809 811 813 814 816 817 818 820 822 824 826 828 830 831 833 834 836 837 838 839 841 842 843 844 844
813 814 813 816 823 828 829 828 828 825 812 797 790 789 792 797 794 792 801 800 785 783 789 787 781 782 782 781 780 777 777 781 780 773 768 767 768 767 766 766 766 766 766 766 767 768 770 772 774 777 778 780 781 783 786 788 792 795 799 802 804 807 808 810 811 813 814 816 819 821 823 825 827 828 830 832 833 835 836 837 839 840 841 843 843 844
814 816 817 818 821 824 825 825 825 817 803 793 791 791 794 796 792 797 810 804 784 780 787 785 780 780 780 782 782 779 778 781 779 772 769 769 769 767 766 765 765 765 765 765 766 767 769 771 773 775 776 777 778 781 784 787 790 793 796 799 802 804 805 806 808 810 812 815 817 819 821 823 825 827 829 830 832 833 835 836 838 839 840 842 843 844
816 817 820 821 820 823 825 823 821 811 796 789 789 790 793 794 796 804 807 793 778 778 782 781 778 778 777 779 780 777 775 774 773 770 770 770 768 767 766 766 765 765 765 765 766 767 768 770 771 772 773 774 777 780 783 786 789 791 793 796 799 800 801 803 806 809 811 813 816 818 820 822 824 826 827 829 830 832 833 835 836 838 839 841 842 843
814 816 820 821 820 823 823 821 820 809 791 784 788 791 791 794 798 797 788 778 775 775 776 777 777 774 775 776 775 773 771 769 769 769 769 769 767 766 766 766 765 764 764 764 765 766 767 769 770 771 773 775 777 779 782 785 787 789 791 794 795 796 799 802 805 807 810 812 814 816 818 820 822 824 826 828 829 830 832 834 835 836 838 839 841 842
806 808 814 815 815 820 822 822 821 807 789 782 787 790 791 789 785 779 774 775 777 774 773 776 774 773 774 773 772 772 770 768 769 768 768 768 768 767 767 766 765 765 764 764 765 765 766 767 769 770 772 774 776 778 781 783 785 787 789 790 791 794 798 801 803 806 808 810 812 814 816 818 821 823 825 826 828 829 831 832 833 835 836 837 839 840
803 802 805 805 806 810 815 813 804 789 780 780 780 780 782 779 774 772 772 772 773 773 773 773 771 771 773 771 770 770 769 768 768 767 766 767 766 766 766 766 765 765 764 764 765 765 766 766 767 769 771 773 775 777 779 781 783 785 786 787 789 793 796 799 802 804 806 808 810 813 815 817 819 821 823 825 826 828 829 830 831 833 834 836 837 838
796 793 794 796 796 797 795 790 781 776 779 782 777 773 772 771 772 775 774 771 771 772 772 771 768 768 770 771 770 769 768 767 765 765 765 764 764 765 765 764 764 764 764 764 765 765 765 766 766 768 769 771 773 775 776 779 781 782 783 784 787 791 793 796 800 802 804 806 808 810 813 815 817 820 822 823 825 826 827 828 830 831 833 834 835 836
790 792 793 791 790 788 783 778 778 778 777 776 775 774 773 772 772 773 773 772 770 768 769 769 766 764 767 769 769 768 767 765 764 764 765 764 764 764 764 763 763 763 763 764 763 764 765 766 767 768 768 768 771 773 774 776 778 779 779 782 785 788 791 794 797 799 801 804 806 808 811 813 815 818 820 822 823 824 825 826 828 829 830 832 833 834
790 793 793 789 788 787 782 775 774 774 772 771 773 773 772 771 770 770 771 770 767 766 767 767 765 764 766 767 767 765 764 763 764 764 764 764 763 763 763 763 762 761 761 761 761 762 764 765 766 767 767 767 768 770 772 774 775 776 777 780 783 786 788 791 794 796 799 801 803 806 808 810 813 815 818 820 821 823 824 825 826 827 828 830 831 832
789 791 790 787 786 785 777 769 768 770 771 771 772 771 768 767 766 766 767 766 765 765 765 764 764 764 764 763 763 762 760 760 761 760 759 760 761 760 760 760 759 758 759 759 760 762 763 763 764 764 765 765 765 767 770 771 772 774 777 779 781 783 786 789 791 793 796 798 801 804 805 808 810 812 815 817 819 820 821 822 823 824 825 826 828 829
790 791 789 787 786 782 773 766 767 771 769 765 766 767 765 764 763 762 762 763 764 764 763 761 761 761 760 759 759 759 758 757 757 757 757 757 757 757 756 756 755 756 756 756 758 759 760 760 761 761 762 762 763 766 768 769 771 774 776 777 779 781 783 786 788 790 793 795 798 801 803 805 807 809 812 814 816 817 819 820 821 822 823 824 826 827
790 790 788 788 789 784 772 764 766 771 768 761 759 761 761 760 762 761 760 760 760 759 759 759 757 756 757 757 757 757 757 755 754 755 755 754 754 754 753 752 753 754 754 755 756 757 758 758 758 758 759 760 761 763 765 766 769 772 774 776 778 779 781 783 785 788 790 792 795 797 799 802 804 806 808 810 812 815 816 818 819 821 822 823 825 826
783 782 782 784 782 776 766 761 763 768 766 758 754 756 757 757 758 758 756 755 754 754 755 756 754 753 753 753 753 755 754 752 751 752 753 752 751 750 750 750 751 751 751 752 753 755 755 756 756 757 758 758 759 760 760 762 766 769 771 773 775 776 778 780 782 785 787 788 791 793 796 798 800 802 805 807 809 811 813 815 817 818 820 821 822 824